Location: Bieujac
(44.5398°N, 0.1549°W)
Time: 10:04:20
(UTC+00:00)

Cosmos 990 Rocket - Pass Details

Date: 17 November 2019
Orbit: 746 x 770 km, 74.0° (Epoch: 14 December)

Event Time Altitude Azimuth Distance (km) Brightness Sun altitude
Exits shadow 04:46:47 38° 211° (SSW) 1,138 4.6 -23.5°
Maximum altitude 04:48:48 78° 291° (WNW) 777 3.8 -23.1°
Drops below altitude 10° 04:54:01 10° 19° (NNE) 2,300 6.6 -22.2°
Sets 04:56:25 0° 20° (NNE) 3,234 7.4 -21.7°
